Flag for Cuba Weather past 2 weeks in Santiago de Cuba, Cuba

Now
73 °F

Passing clouds.


Feels Like: 74 °F
Forecast: 72 / 89 °F
Wind: 6 mph from North

Location: Santiago De Cuba - Oriente


UV Index: 7 (High)

Visibility: 6 mi


Pressure: 29.98 "Hg

Humidity: 78%

Dew point: 66 °F

Location of Santiago de CubaLocation

Historic Weather in Santiago de Cuba

°F

Santiago de Cuba temperature yesterday

Maximum temperature yesterday: 84 °F (at 9:50 AM)
Minimum temperature yesterday: 72 °F (at 2:51 AM)
Average temperature yesterday: 78 °F

Past Weeks' High & Low Weather Summary

 TemperatureHumidityPressure
High91 °F (Apr 10, 1:52 PM)94% (Apr 14, 12:51 AM)30.09 "Hg (Apr 14, 12:51 AM)
Low68 °F (Apr 5, 5:52 AM)46% (Apr 10, 1:52 PM)29.86 "Hg (Apr 15, 4:50 PM)
Average79 °F71%29.99 "Hg
* Reported Apr 4 2:50 AM — Apr 19 2:51 AM, Santiago de Cuba, Weather by CustomWeather, © 2014

Note: Actual official high and low records may vary slightly from our data, if they occured in-between our weather recording intervals... More about our weather records

Advertising

Historic Weather Conditions — Data for Previous 24 hours

 ConditionsComfort  
Time TempWeatherWind HumidityBarometerVisibility
2:51 AM
Apr 19
73 °FPassing clouds.6 mph78%29.98 "Hg6 mi
1:51 AM75 °FPassing clouds.3 mph74%29.98 "Hg6 mi
12:51 AM75 °FPassing clouds.3 mph74%30.01 "Hg6 mi
11:55 PM
Apr 18
75 °FPassing clouds.5 mph69%30.01 "Hg6 mi
10:50 PM77 °FPassing clouds.6 mph65%30.01 "Hg6 mi
9:50 PM77 °FPassing clouds.5 mph69%30.01 "Hg6 mi
8:51 PM81 °FPassing clouds.3 mph62%29.98 "Hg6 mi
7:50 PM81 °FPassing clouds.3 mph62%29.98 "Hg6 mi
6:54 PM82 °FPassing clouds.6 mph58%29.95 "Hg6 mi
5:50 PM84 °FWarm.6 mph55%N/A1 mi
4:51 PM82 °FScattered clouds.7 mph58%29.95 "HgN/A
3:51 PM82 °FScattered clouds.7 mph58%29.95 "HgN/A
2:50 PM81 °FScattered clouds.6 mph66%29.98 "HgN/A
1:51 PM81 °FPartly sunny.9 mph66%30.01 "HgN/A
12:51 PM81 °FScattered clouds.15 mph70%30.01 "HgN/A
11:50 AM82 °FScattered clouds.15 mph66%30.01 "HgN/A
10:51 AM84 °FScattered clouds.7 mph55%30.01 "HgN/A
9:50 AM84 °FPassing clouds.5 mph55%30.01 "HgN/A
8:50 AM81 °FPassing clouds.6 mph62%30.01 "HgN/A
7:50 AM75 °FPassing clouds.8 mph74%29.98 "HgN/A
6:51 AM72 °FPassing clouds.7 mph78%29.98 "HgN/A
5:50 AM72 °FPassing clouds.7 mph78%29.95 "Hg6 mi
4:51 AM72 °FPassing clouds.7 mph78%29.95 "Hg6 mi
3:51 AM72 °FPassing clouds.7 mph78%29.95 "Hg6 mi
Weather by CustomWeather, © 2014

See weather overview